Regional Weather Roundup
Issued by NWS Wakefield, VA

Home | Current Version | Previous Version | Graphics & Text | Print | Product List | Glossary On
Versions: 1 2 3 4 5 6 7 8 9 10 11 12 13 14 15 16 17 18 19 20 21 22 23 24 25 26 27 28 29 30 31 32 33 34 35 36 37 38 39 40 41 42 43 44 45 46 47 48 49 50
000
ASUS41 KAKQ 301415
RWRAKQ

REGIONAL WEATHER ROUNDUP
NATIONAL WEATHER SERVICE WAKEFIELD VA
1000 AM EDT SUN APR 30 2017

Note: "fair" indicates few or no clouds below 12,000 feet with no
significant weather and/or obstructions to visibility. * = Denotes
station may not report precipitation (e.g., rain,snow,etc.),
thunder or fog.

VAZ042-051-052>054-056-301500-
NORTHERN VIRGINIA

CITY           SKY/WX    TMP DP  RH WIND       PRES   REMARKS
WASH NATIONAL  CLOUDY    75  69  81 NE7       30.13R
DULLES         PTSUNNY   74  68  81 NE3       30.12F
FORT BELVOIR   CLOUDY    79  70  73 CALM      30.11
QUANTICO       MOSUNNY   76  72  87 SE6       30.11F
FREDERICKSBRG* SUNNY     79  71  75 SW8       30.11F
STAFFORD*      SUNNY     78  72  81 SW6       30.15F
WARRENTON      PTSUNNY   80  68  66 S3        30.11F
CULPEPER*      SUNNY     79  71  78 SW6       30.11F
MANASSAS*        N/A     76  70  82 CALM      30.12F
LEESBURG*      CLOUDY    72  68  88 NE3       30.14F
WINCHESTER     CLOUDY    68  61  77 CALM      30.13F
FRONT ROYAL*   SUNNY     72  64  78 CALM      30.12F
LURAY*         SUNNY     75  68  78 N3        30.12F
$$

VAZ048-049-060>072-079>083-301500-
CENTRAL AND SOUTH CENTRAL VIRGINIA

CITY           SKY/WX    TMP DP  RH WIND       PRES   REMARKS
RICHMOND       MOSUNNY   77  69  76 SW15      30.15S
CHESTERFIELD*  FAIR     N/A N/A N/A SW14      30.16F
PETERSBURG*    PTSUNNY   77  66  68 SW12      30.17F
HANOVER        MOSUNNY   78  67  68 SW9       30.15S
TAPPAHANNOCK*  SUNNY     79  69  72 SW8G16    30.15S
QUINTON*       FAIR      77  69  76 SW8G20    30.15S
CHARLOTTSVILLE SUNNY     80  70  71 S14       30.11F
GORDONSVILLE*  MOSUNNY   77  71  80 SW13      30.11F
ORANGE*        SUNNY     77  70  78 SW8       30.11F
LOUISA*        MOSUNNY   79  72  78 SW9       30.13S
BUMPASS*       CLOUDY    75  71  86 SW10G17   30.14S
FARMVILLE*     PTSUNNY   77  69  77 SW9       30.14F
CREWE*         PTSUNNY   74  71  90 SW7G16    30.17F
FORT PICKETT*  NOT AVBL
CHASE CITY*    CLOUDY    74  69  83 S6        30.19S
CLARKSVILLE*   CLOUDY    73  68  83 SW8       30.18F
SOUTH HILL*    PTSUNNY   74  67  80 SW10G17   30.25S
LAWRENCEVILLE* PTSUNNY   74  67  79 SW7       30.19S
EMPORIA*       MOSUNNY   75  66  73 S12       30.20F
$$

VAZ088>098-301500-
SOUTHEAST VIRGINIA

CITY           SKY/WX    TMP DP  RH WIND       PRES   REMARKS
NORFOLK        MOSUNNY   78  67  68 SW15      30.18S
VIRGINIA BEACH MOSUNNY   76  66  71 SW14G21   30.17F
NORFOLK NAVAL  MOSUNNY   78  67  68 SW12      30.19F
WEST POINT*    SUNNY     78  67  69 SW9       30.17F
SALUDA*        PTSUNNY   76  71  82 SW5G17    30.15S
NEWPORT NEWS   MOSUNNY   76  67  73 SW14      30.17F
LANGLEY AFB    MOSUNNY   75  68  78 SW15      30.17F
FORT EUSTIS    MOSUNNY   78  68  72 SW9       30.15F
WILLIAMSBURG*  MOSUNNY   79  70  73 CALM      30.18F
HR EXEC AP*    FAIR      79  66  65 SW10G17   30.17F
FRANKLIN*      MOSUNNY   76  66  71 SW8G16    30.19F
US460-WAKEFLD  MOSUNNY   78  67  68 SW9       30.18F
$$

VAZ020-022-025-037-045-301500-
WEST CENTRAL AND SOUTHWEST VIRGINIA

CITY           SKY/WX    TMP DP  RH WIND       PRES   REMARKS
STAUNTON*      SUNNY     77  66  69 S8        30.14F
WAYNESBORO*    SUNNY     78  68  70 CALM      30.14S
HOT SPRINGS VA CLOUDY    66  61  82 CALM      30.24S
LYNCHBURG      MOSUNNY   74  66  76 S9G18     30.16S
DANVILLE       PTSUNNY   73  67  81 VRB7      30.18S
SOUTH BOSTON*  PTSUNNY   75  67  75 SW8       30.18S
MARTINSVILLE   CLOUDY    71  64  78 SW6       30.20S
ROANOKE        MOSUNNY   76  67  73 SE10      30.15F
BLACKSBURG     PTSUNNY   73  63  69 S9        30.21S
DUBLIN*        MOSUNNY   74  59  57 S7        30.19R
MARION*        PTSUNNY   75  60  60 S3        30.19R
HILLSVILLE*    CLOUDY    67  62  83 S7G16     30.19S
RICHLANDS*     FAIR      74  60  62 S10G16    30.14R
WISE*          PTSUNNY   73  57  56 S12       30.13S
ABINGDON*      MOSUNNY   77  61  56 SW5       30.11S
$$

MDZ021>025-VAZ099-100-301500-
SOUTHERN MARYLAND AND THE DELMARVA PENINSULA

CITY           SKY/WX    TMP DP  RH WIND       PRES   REMARKS
PATUXENT RIVER PTSUNNY   79  73  82 SW12      30.14R
BAY BRIDGE APT CLOUDY    73  64  73 E8        30.14R
LEONARDTOWN    MOSUNNY   77  70  78 SW9       30.15R
DOVER          MOSUNNY   68  66  91 E15       30.18S
GEORGETOWN     PTSUNNY   72  64  76 E6        30.17S
EASTON         MOSUNNY   75  64  69 E8        30.18S
CAMBRIDGE      SUNNY     81  72  74 VRB3G12   30.14S
SALISBURY      PTSUNNY   79  73  82 VRB6      30.15S
OCEAN CITY     MOSUNNY   71  66  84 VRB5      30.17S
WALLOPS ISLAND SUNNY     79  71  76 W10G21    30.16S
ACCOMACK*      MOSUNNY   79  71  74 SW13G18   30.16S
$$

NCZ012>017-030>032-301500-
NORTH CENTRAL AND EASTERN NORTH CAROLINA

CITY           SKY/WX    TMP DP  RH WIND       PRES   REMARKS
ROANOKE RAPIDS FAIR      75  68  78 SW13G18   30.20S
RALEIGH        CLOUDY    74  66  76 SW13G23   30.21S
ELIZABETH CITY MOSUNNY   77  69  76 SW10      30.21S
AHOSKIE*         N/A     76  67  74 S6        30.19F
EDENTON*       MOSUNNY   79  69  71 SW8       30.22F
CURRITUCK*     PTSUNNY   76  67  71 SW12      30.21S
KILL DEVIL HLS MOSUNNY   78  67  70 SW7G16    30.20S
MANTEO         MOSUNNY   78  68  72 W13       30.22S
CAPE HATTERAS  SUNNY     77  70  79 SW10      30.24S HAZE
TARBORO*       NOT AVBL
GOLDSBORO      CLOUDY    78  73  84 S9        30.20F
WASHINGTON     PTSUNNY   78  69  74 W9        30.22F
GREENVILLE     MOSUNNY   79  70  73 SW10      30.22F
NEW BERN       PTSUNNY   80  71  74 SW12      30.23F
WILMINGTON     PTSUNNY   78  71  79 S14G21    30.22S
$$

VAZ048-301500-
ELSEWHERE

CITY           SKY/WX    TMP DP  RH WIND       PRES   REMARKS
HARRISBURG PA  CLOUDY    66  51  58 E10       30.16S
BALTIMORE      CLOUDY    69  62  78 E10       30.15R
ANNAPOLIS      CLOUDY    71  68  90 E5        30.13S
ANDREWS AFB    CLOUDY    76  69  78 W6        30.12S
PHILADELPHIA   CLOUDY    67  52  58 E13G21    30.20F
HENDERSON NC   CLOUDY    72  65  77 SW14      30.19F
GREENSBORO     PTSUNNY   73  66  78 SW12      30.17F
ROCKY MOUNT    CLOUDY    76  68  76 SW10      30.21S
$$

VAZ100-301500-
MARINE

STATION/POSITION TIME  TEMP    WIND        PRES    WAVE   SWELL
                       AIR SEA DIR/SP/G            HT/PER HT/PER
                 (UTC) (F)     (DEG/KT/KT) (MB)    (FT/S) (FT/S)
CAPE MAY NJ      1336   66 60   70/ 15/ 19 1021.5R
LEWES DE         1336   62 60  110/  7/ 11 1021.6S
15NM E FENWICK I 1250   59 58  120/  8/  8 1021.6    3/ 7   3/ 7
OCEAN-CITY-INLET 1336   63 62  190/  4/  5 1021.8S
WACHAPREAGUE VA  1336   79 74  220/  6/ 11 1020.8S
THOMAS POINT MD  1300   69 61  100/ 14/ 15   N/A
GOOSES REEF MD   1350   68     180/  8/  8 1020.9R
COVE POINT MD    1336   69     170/ 10/ 11 1021.0R
SOLOMONS ISLAND  1348   77 62  230/  4/  6   N/A
BISHOPS HEAD MD  1336   73 70  200/ 10/ 11 1021.3R
PINEY POINT MD   1336          260/  3/  3   N/A
POTOMAC MD       1350   70     250/  4/  6 1019.8S
CAMBRIDGE MD     1336   76 68                N/A
LEWISETTA VA     1336   77 72  230/ 11/ 13 1020.2F
RAPPAHANNOCK LGT 1336          190/ 15/ 16 1021.8F
STINGRAY PT      1350   72     250/ 10/ 12 1021.2S
YORK RVR RNG VA  1336   73     230/ 15/ 16 1020.8F
YORKTOWN VA      1336   74 68  230/ 11/ 16 1021.1F
JAMESTOWN VA     1350   74     230/ 10/ 12   N/A
DOMINION TERM VA 1336   73     230/  9/ 12 1022.2F
KIPTOPEKE VA     1348      66  230/  7/  9   N/A
CHES BAY BRIDGE  1336   72 65  250/ 16/ 18 1021.7F
CAPE HENRY VA    1336   75     230/  8/ 13   N/A
WILLOUBY STN VA  1336   72     240/ 14/ 15 1022.9F
S CRANEY ISL VA  1336   74     210/ 11/ 15 1022.1F
CAPE HENRY BUOY  1342      64                N/A     3/ 6
1ST LANDING BUOY 1350   71                 1021.9F
CAPE CHARLES BUO 1351      58                N/A     2/ 6
64NM E OF VA BCH 1250   63 57  220/ 12/ 14 1022.9    3/ 5   2/ 6
DUCK PIER NC     1336   74 56  240/ 14/ 18 1022.7R
44100 DUCK FRF   1305      61                N/A     2/ 7
44056 DUCK FRF   1330      59                N/A     2/ 6
OREGON INLET NC  1336   74 77  200/ 14/ 16 1023.1R
HATTERAS NC      1336   76 72  220/  6/  9 1023.8R
DIAMOND SHLS NC  1250   76 74  220/ 14/ 16 1023.8    3/ 4   2/ 7
CAPE LOOKOUT NC  1300   76     200/  9/ 12 1023.3R
$$



USA.gov is the U.S. government's official web portal to all federal, state and local government web resources and services.